Saginaw, MI

4:01 PM EST on February 22, 2018 (GMT -0500)
MBS International

Weather History for KMBS - May, 2012

Change the Weather History Date:

Thursday, May 31, 2012

  Actual Average Record
Temperature  
Mean Temperature 52 °F 62 °F  
Max Temperature 59 °F 73 °F 90 °F (2007)
Min Temperature 44 °F 52 °F 41 °F (2001)
Degree Days  
Heating Degree Days 14    
Month to date heating degree days  
Since 1 July heating degree days  
Cooling Degree Days 0    
Month to date cooling degree days  
Year to date cooling degree days  
Growing Degree Days 2 (Base 50)    
Moisture  
Dew Point 40 °F    
Average Humidity 67    
Maximum Humidity 77    
Minimum Humidity 47    
Precipitation  
Precipitation 0.00 in 0.10 in 0.98 in (2002)
Month to date precipitation 3.38  
Year to date precipitation 11.65  
Snow  
Snow 0.00 in - - ()
Month to date snowfall  
Since 1 July snowfall  
Snow Depth -    
Sea Level Pressure  
Sea Level Pressure 30.01 in    
Wind  
Wind Speed 9 mph (NNE)    
Max Wind Speed 18 mph    
Max Gust Speed 24 mph    
Visibility 10 miles    
Events Rain    
T = Trace of Precipitation, MM = Missing Value Source: NWS Daily Summary

Daily Weather History Graph

Daily Weather History Graph

Search for Another Location

Airport or City:

Trip Planner

Search our weather history database for the weather conditions in past years. The results will help you decide how hot, cold, wet, or windy it might be!

Date:

Astronomy

May. 31, 2012 Rise Set
Actual Time 5:58 AM EDT 9:10 PM EDT
Civil Twilight 5:23 AM EDT 9:45 PM EDT
Nautical Twilight 4:38 AM EDT 10:30 PM EDT
Astronomical Twilight 3:44 AM EDT 11:25 PM EDT
Moon 4:52 PM EDT (5/31) 3:03 AM EDT (5/31)
Length of Visible Light 16h 21m
Length of Day
15h 11m
Waxing Gibbous, 80% of the Moon is Illuminated
May 31
Waxing Gibbous
Jun 4
Full
Jun 11
Last Quarter
Jun 19
New
Jun 26
First Quarter

Hourly Weather History & Observations

Time (EDT) Temp. Windchill Dew Point Humidity Pressure Visibility Wind Dir Wind Speed Gust Speed Precip Events Conditions
12:53 AM 46.9 °F - 39.0 °F 74% 29.96 in 10.0 mi North 10.4 mph - N/A   Clear
1:49 AM 46.4 °F 41.5 °F 37.4 °F 71% 29.97 in 10.0 mi North 10.4 mph - N/A   Mostly Cloudy
1:53 AM 46.9 °F - 37.0 °F 68% 29.98 in 10.0 mi North 10.4 mph - N/A   Mostly Cloudy
2:53 AM 45.0 °F 41.8 °F 37.9 °F 76% 29.99 in 10.0 mi North 5.8 mph - N/A   Partly Cloudy
3:53 AM 45.0 °F 40.6 °F 37.9 °F 76% 29.99 in 10.0 mi North 8.1 mph - N/A   Clear
4:53 AM 45.0 °F 40.6 °F 37.9 °F 76% 30.01 in 10.0 mi NNW 8.1 mph - N/A   Clear
5:53 AM 45.0 °F 41.2 °F 37.9 °F 76% 30.01 in 10.0 mi North 6.9 mph - N/A   Partly Cloudy
6:33 AM 44.6 °F 40.7 °F 37.4 °F 76% 30.02 in 10.0 mi North 6.9 mph - N/A   Mostly Cloudy
6:53 AM 45.0 °F 41.8 °F 37.9 °F 76% 30.03 in 10.0 mi North 5.8 mph - N/A   Scattered Clouds
7:00 AM 44.6 °F 40.7 °F 37.4 °F 76% 30.02 in 10.0 mi North 6.9 mph - N/A   Overcast
7:26 AM 46.4 °F 42.4 °F 37.4 °F 71% 30.02 in 10.0 mi North 8.1 mph - N/A   Mostly Cloudy
7:53 AM 46.9 °F - 37.9 °F 71% 30.04 in 10.0 mi North 9.2 mph - N/A   Mostly Cloudy
8:53 AM 50.0 °F - 39.9 °F 68% 30.04 in 10.0 mi NNE 8.1 mph - N/A   Partly Cloudy
9:46 AM 51.8 °F - 42.8 °F 71% 30.06 in 10.0 mi North 6.9 mph - N/A   Mostly Cloudy
9:53 AM 51.1 °F - 42.1 °F 71% 30.06 in 10.0 mi North 4.6 mph - N/A   Mostly Cloudy
10:28 AM 51.8 °F - 42.8 °F 71% 30.04 in 10.0 mi Variable 3.5 mph - N/A   Overcast
10:51 AM 51.8 °F - 44.6 °F 76% 30.04 in 10.0 mi North 4.6 mph - N/A   Overcast
10:53 AM 51.1 °F - 44.1 °F 77% 30.05 in 10.0 mi North 5.8 mph - N/A   Overcast
11:53 AM 52.0 °F - 43.0 °F 71% 30.05 in 10.0 mi NNE 3.5 mph - N/A   Overcast
12:30 PM 53.6 °F - 44.6 °F 72% 30.04 in 10.0 mi ENE 4.6 mph - N/A   Overcast
12:53 PM 55.0 °F - 45.0 °F 69% 30.05 in 10.0 mi NE 4.6 mph - N/A   Overcast
1:41 PM 55.4 °F - 44.6 °F 67% 30.04 in 10.0 mi NE 6.9 mph - N/A   Overcast
1:53 PM 55.0 °F - 45.0 °F 69% 30.04 in 10.0 mi East 3.5 mph - N/A   Overcast
2:17 PM 57.2 °F - 44.6 °F 63% 30.03 in 10.0 mi NE 15.0 mph - N/A   Overcast
2:53 PM 57.0 °F - 45.0 °F 64% 30.03 in 10.0 mi NNE 16.1 mph 20.7 mph N/A   Overcast
3:39 PM 59.0 °F - 44.6 °F 59% 30.01 in 10.0 mi NE 15.0 mph - N/A   Mostly Cloudy
3:53 PM 59.0 °F - 44.1 °F 58% 30.01 in 10.0 mi NE 17.3 mph 24.2 mph N/A   Scattered Clouds
4:53 PM 57.0 °F - 42.1 °F 57% 30.00 in 10.0 mi NE 17.3 mph - N/A   Clear
5:53 PM 57.0 °F - 41.0 °F 55% 29.99 in 10.0 mi NNE 18.4 mph - N/A   Partly Cloudy
6:53 PM 55.9 °F - 39.9 °F 55% 30.00 in 10.0 mi NE 10.4 mph - N/A   Overcast
7:53 PM 55.0 °F - 37.9 °F 53% 30.01 in 10.0 mi NE 10.4 mph - N/A   Overcast
8:53 PM 54.0 °F - 36.0 °F 51% 29.99 in 10.0 mi NE 11.5 mph - N/A   Overcast
9:53 PM 54.0 °F - 34.0 °F 47% 29.98 in 10.0 mi East 10.4 mph - N/A   Overcast
10:53 PM 52.0 °F - 33.1 °F 49% 29.96 in 10.0 mi ENE 10.4 mph - 0.00 in Rain Light Rain
11:53 PM 50.0 °F - 37.9 °F 63% 29.94 in 10.0 mi ENE 9.2 mph - 0.00 in Rain Light Rain